CW2323 Weather Reports


Display with metric or nautical units.
time (UTC)temp
F
wind
direction
speed
MPH
gust
MPH
rain 1hr
in
rain 24hr
in
rain mn
in
humidity
%
barometer
mb
20260905083249 67 179 5.0 7.0 0.00 0.00 0.00 47 1008.9
20260905082232 68 160 4.0 8.0 0.00 0.00 0.00 47 1008.8
20260905081235 68 159 5.0 7.0 0.00 0.00 0.00 49 1008.9
20260905080239 68 163 4.0 7.0 0.00 0.00 0.00 49 1008.9
20260905075246 68 165 5.0 7.0 0.00 0.00 0.00 49 1008.8
20260905074304 68 172 4.0 6.0 0.00 0.00 0.00 48 1008.9
20260905073249 69 168 4.0 6.0 0.00 0.00 0.00 46 1008.9
20260905072235 69 169 4.0 6.0 0.00 0.00 0.00 46 1009.0
20260905071232 70 169 5.0 9.0 0.00 0.00 0.00 45 1009.0
20260905070243 71 166 4.0 9.0 0.00 0.00 0.00 43 1009.0
20260905065225 70 174 4.0 7.0 0.00 0.00 0.00 45 1009.0
20260905064230 70 174 3.0 6.0 0.00 0.00 0.00 42 1008.9
20260905063229 71 169 3.0 7.0 0.00 0.00 0.00 39 1008.9
20260905062235 71 173 5.0 7.0 0.00 0.00 0.00 38 1008.8
20260905061236 72 169 4.0 8.0 0.00 0.00 0.00 35 1008.7
20260905060235 72 184 6.0 8.0 0.00 0.00 0.00 35 1008.7
20260905055244 73 168 7.0 10.0 0.00 0.00 0.00 34 1008.7
20260905054231 73 171 7.0 10.0 0.00 0.00 0.00 33 1008.6
20260905053233 74 172 7.0 10.0 0.00 0.00 0.00 32 1008.6
20260905052241 74 178 7.0 12.0 0.00 0.00 0.00 32 1008.6
20260905051232 73 209 7.0 11.0 0.00 0.00 0.00 33 1008.6
20260905050241 73 209 2.0 6.0 0.00 0.00 0.00 34 1008.6
20260905045225 74 171 1.0 11.0 0.00 0.00 0.00 32 1008.6
20260905044239 75 154 6.0 12.0 0.00 0.00 0.00 31 1008.5
20260905043301 75 360 7.0 14.0 0.00 0.00 0.00 31 1008.5
20260905042240 76 360 8.0 16.0 0.00 0.00 0.00 31 1008.4
20260905041242 77 360 9.0 16.0 0.00 0.00 0.00 30 1008.3
20260905040235 76 360 9.0 15.0 0.00 0.00 0.00 30 1008.3
20260905035240 76 360 7.0 12.0 0.00 0.00 0.00 30 1008.2
20260905034247 77 150 9.0 13.0 0.00 0.00 0.00 30 1008.2
20260905033235 77 140 7.0 14.0 0.00 0.00 0.00 29 1008.2
20260905032239 77 360 7.0 15.0 0.00 0.00 0.00 29 1008.1
20260905031259 77 360 7.0 16.0 0.00 0.00 0.00 29 1008.1
20260905030247 77 167 8.0 14.0 0.00 0.00 0.00 29 1008.1
20260905025232 77 360 5.0 11.0 0.00 0.00 0.00 28 1007.8
20260905024233 77 119 5.0 13.0 0.00 0.00 0.00 27 1007.6
20260905023241 78 360 4.0 12.0 0.00 0.00 0.00 28 1007.6
20260905022229 78 158 5.0 12.0 0.00 0.00 0.00 28 1007.5
20260905021229 79 360 7.0 12.0 0.00 0.00 0.00 27 1007.4
20260905020234 79 360 5.0 13.0 0.00 0.00 0.00 26 1007.4
20260905015239 80 142 7.0 16.0 0.00 0.00 0.00 25 1007.4
20260905014231 81 157 8.0 15.0 0.00 0.00 0.00 23 1007.1
20260905013232 82 147 3.0 7.0 0.00 0.00 0.00 22 1007.1
20260905012233 83 200 1.0 10.0 0.00 0.00 0.00 23 1007.0
20260905011241 83 155 4.0 12.0 0.00 0.00 0.00 21 1006.8
20260905010240 84 152 4.0 7.0 0.00 0.00 0.00 21 1006.8
20260905005245 85 140 3.0 7.0 0.00 0.00 0.00 20 1006.8
20260905004232 86 138 5.0 9.0 0.00 0.00 0.00 20 1006.8
20260905003234 87 87 4.0 9.0 0.00 0.00 0.00 19 1006.8
20260905002240 88 132 4.0 8.0 0.00 0.00 0.00 18 1006.6
20260905001243 90 104 5.0 10.0 0.00 0.00 0.00 17 1006.5
20260905000245 91 112 4.0 12.0 0.00 0.00 0.00 16 1006.5
20260904235253 91 99 7.0 13.0 0.00 0.00 0.00 16 1006.4
20260904234235 91 81 6.0 12.0 0.00 0.00 0.00 17 1006.4
20260904233244 91 72 6.0 15.0 0.00 0.00 0.00 17 1006.4
20260904232307 91 61 6.0 16.0 0.00 0.00 0.00 17 1006.4
20260904231233 91 78 7.0 18.0 0.00 0.00 0.00 16 1006.4
20260904230241 91 89 9.0 18.0 0.00 0.00 0.00 17 1006.4
20260904225257 92 78 9.0 16.0 0.00 0.00 0.00 16 1006.5
20260904224237 92 61 8.0 16.0 0.00 0.00 0.00 16 1006.5
20260904223237 92 67 9.0 18.0 0.00 0.00 0.00 16 1006.5
20260904222237 91 92 10.0 17.0 0.00 0.00 0.00 16 1006.7
20260904221228 93 5 10.0 17.0 0.00 0.00 0.00 15 1006.7
20260904220237 93 68 10.0 18.0 0.00 0.00 0.00 15 1006.7
20260904215235 93 54 8.0 15.0 0.00 0.00 0.00 14 1006.8
20260904214239 93 19 4.0 14.0 0.00 0.00 0.00 15 1006.8
20260904213304 92 85 8.0 14.0 0.00 0.00 0.00 14 1006.8
20260904212239 92 51 7.0 14.0 0.00 0.00 0.00 14 1006.9
20260904211302 91 49 8.0 12.0 0.00 0.00 0.00 14 1007.4
20260904210246 89 22 7.0 16.0 0.00 0.00 0.00 15 1007.4
20260904205230 90 53 6.0 15.0 0.00 0.00 0.00 15 1007.4
20260904204233 90 38 8.0 12.0 0.00 0.00 0.00 14 1007.5
20260904203240 90 26 6.0 13.0 0.00 0.00 0.00 14 1007.5
20260904202305 90 32 6.0 11.0 0.00 0.00 0.00 13 1007.6
20260904201231 91 19 7.0 14.0 0.00 0.00 0.00 13 1007.9
20260904200246 91 45 2.0 9.0 0.00 0.00 0.00 13 1007.9
20260904195232 92 14 5.0 10.0 0.00 0.00 0.00 13 1008.0
20260904194235 90 325 1.0 9.0 0.00 0.00 0.00 14 1008.2
20260904193240 90 77 6.0 12.0 0.00 0.00 0.00 14 1008.2
20260904192242 89 19 7.0 10.0 0.00 0.00 0.00 14 1008.2
20260904191301 89 360 6.0 10.0 0.00 0.00 0.00 14 1008.5
20260904190249 90 13 6.0 10.0 0.00 0.00 0.00 14 1008.5
20260904185239 90 344 5.0 12.0 0.00 0.00 0.00 15 1008.7
20260904184234 90 22 7.0 11.0 0.00 0.00 0.00 14 1008.7
20260904183240 90 67 3.0 7.0 0.00 0.00 0.00 14 1008.7
20260904182250 90 13 4.0 7.0 0.00 0.00 0.00 15 1008.8
20260904181247 90 42 1.0 7.0 0.00 0.00 0.00 14 1009.1
20260904180239 90 5 4.0 8.0 0.00 0.00 0.00 14 1009.1
20260904175246 89 45 2.0 4.0 0.00 0.00 0.00 15 1009.3
20260904174235 88 45 4.0 6.0 0.00 0.00 0.00 14 1009.3
20260904173232 87 248 1.0 11.0 0.00 0.00 0.00 14 1009.3
20260904172234 87 102 1.0 9.0 0.00 0.00 0.00 16 1009.3
20260904171243 86 292 3.0 11.0 0.00 0.00 0.00 15 1009.2
20260904170228 86 173 6.0 10.0 0.00 0.00 0.00 16 1009.2
20260904165246 86 181 2.0 10.0 0.00 0.00 0.00 16 1009.3
20260904164248 85 219 1.0 9.0 0.00 0.00 0.00 15 1009.3
20260904163244 85 270 3.0 8.0 0.00 0.00 0.00 16 1009.3
20260904162246 84 242 5.0 10.0 0.00 0.00 0.00 15 1009.3
20260904161230 83 180 5.0 9.0 0.00 0.00 0.00 16 1009.4
20260904160232 82 208 6.0 11.0 0.00 0.00 0.00 18 1009.4
20260904155230 81 203 3.0 8.0 0.00 0.00 0.00 17 1009.4
20260904154236 80 182 5.0 9.0 0.00 0.00 0.00 18 1009.3
20260904153241 79 201 2.0 7.0 0.00 0.00 0.00 19 1009.3
20260904152245 77 192 4.0 10.0 0.00 0.00 0.00 20 1009.3
20260904151227 76 181 8.0 12.0 0.00 0.00 0.00 20 1009.3
20260904150230 75 208 4.0 9.0 0.00 0.00 0.00 22 1009.3
20260904145252 73 205 3.0 6.0 0.00 0.00 0.00 22 1009.3
20260904144239 72 242 3.0 9.0 0.00 0.00 0.00 25 1009.3
20260904143244 71 206 2.0 5.0 0.00 0.00 0.00 26 1009.3
20260904142230 70 204 1.0 8.0 0.00 0.00 0.00 25 1009.2
20260904141236 68 169 3.0 4.0 0.00 0.00 0.00 28 1008.9
20260904140240 66 169 5.0 7.0 0.00 0.00 0.00 33 1008.9
20260904135247 66 360 1.0 3.0 0.00 0.00 0.00 39 1008.8
20260904134244 65 360 4.0 9.0 0.00 0.00 0.00 34 1008.7
20260904133230 61 168 5.0 7.0 0.00 0.00 0.00 45 1008.7
20260904132234 59 360 3.0 5.0 0.00 0.00 0.00 49 1008.5
20260904131234 57 360 2.0 4.0 0.00 0.00 0.00 53 1008.3
20260904130259 57 360 2.0 4.0 0.00 0.00 0.00 51 1008.3
20260904125245 57 177 1.0 5.0 0.00 0.00 0.00 50 1008.1
20260904124236 57 177 2.0 6.0 0.00 0.00 0.00 50 1008.1
20260904123301 57 182 3.0 6.0 0.00 0.00 0.00 48 1008.1
20260904122243 57 182 4.0 7.0 0.00 0.00 0.00 48 1008.0
20260904121229 57 183 3.0 4.0 0.00 0.00 0.00 48 1008.1
20260904120228 57 183 3.0 4.0 0.00 0.00 0.00 49 1008.1
20260904115237 57 183 2.0 6.0 0.00 0.00 0.00 47 1007.8
20260904114242 58 183 4.0 5.0 0.00 0.00 0.00 44 1007.8
20260904113245 59 184 2.0 4.0 0.00 0.00 0.00 42 1007.8
20260904112229 58 184 3.0 5.0 0.00 0.00 0.00 43 1007.8
20260904111234 59 184 3.0 4.0 0.00 0.00 0.00 42 1007.6
20260904110234 60 184 4.0 5.0 0.00 0.00 0.00 39 1007.6
20260904105235 62 184 4.0 5.0 0.00 0.00 0.00 36 1007.5
20260904104236 63 196 3.0 5.0 0.00 0.00 0.00 34 1007.4
20260904103240 63 210 2.0 4.0 0.00 0.00 0.00 34 1007.4
20260904102246 64 210 2.0 4.0 0.00 0.00 0.00 33 1006.9
20260904101248 64 210 2.0 7.0 0.00 0.00 0.00 32 1006.8
20260904100228 64 214 2.0 7.0 0.00 0.00 0.00 35 1006.8
20260904095231 63 186 2.0 4.0 0.00 0.00 0.00 37 1006.8
20260904094255 62 186 0.0 3.0 0.00 0.00 0.00 40 1006.7
20260904093238 63 186 0.0 2.0 0.00 0.00 0.00 39 1006.7
20260904092244 64 186 0.0 2.0 0.00 0.00 0.00 37 1006.3
20260904091246 65 186 3.0 7.0 0.00 0.00 0.00 35 1006.2
20260904090231 64 187 0.0 4.0 0.00 0.00 0.00 36 1006.2
20260904085231 65 187 2.0 6.0 0.00 0.00 0.00 34 1006.2
20260904084240 66 188 3.0 6.0 0.00 0.00 0.00 33 1006.2